Time,TemperatureF,DewpointF,PressureIn,WindDirection,WindDirectionDegrees,WindSpeedMPH,WindSpeedGustMPH,Humidity,HourlyPrecipIn,Conditions,Clouds,dailyrainin,SoftwareType,DateUTC
2013-03-04 08:52:00,25.0,21.0,-100.00,SE,134,1.0,2.0,81,0.00,,,-99.99,,2013-03-04 13:52:00,
2013-03-04 09:01:00,26.0,21.0,-100.00,ESE,118,2.0,2.0,80,0.00,,,-99.99,,2013-03-04 14:01:00,
2013-03-04 09:12:00,25.0,19.0,-100.00,ESE,118,2.0,2.0,77,0.00,,,-99.99,,2013-03-04 14:12:00,
2013-03-04 09:22:00,26.0,19.0,-100.00,SE,125,3.0,4.0,76,0.00,,,-99.99,,2013-03-04 14:22:00,
2013-03-04 09:32:00,28.0,23.0,-100.00,SSE,162,4.0,4.0,77,0.00,,,-99.99,,2013-03-04 14:32:00,
2013-03-04 09:42:00,25.0,19.0,-100.00,SE,138,4.0,4.0,76,0.00,,,-99.99,,2013-03-04 14:42:00,
2013-03-04 09:52:00,27.0,21.0,-100.00,SE,136,5.0,6.0,77,0.00,,,-99.99,,2013-03-04 14:52:00,
2013-03-04 10:02:00,26.0,19.0,-100.00,SE,131,6.0,8.0,75,0.00,,,-99.99,,2013-03-04 15:02:00,
2013-03-04 10:11:00,26.0,19.0,-100.00,SSE,153,6.0,8.0,73,0.00,,,-99.99,,2013-03-04 15:11:00,
2013-03-04 10:22:00,26.0,19.0,-100.00,SE,142,7.0,10.0,72,0.00,,,-99.99,,2013-03-04 15:22:00,
2013-03-04 10:32:00,25.0,19.0,-100.00,SE,144,8.0,10.0,73,0.00,,,-99.99,,2013-03-04 15:32:00,
2013-03-04 10:42:00,27.0,19.0,-100.00,SE,128,6.0,10.0,71,0.00,,,-99.99,,2013-03-04 15:42:00,
2013-03-04 10:52:00,27.0,19.0,-100.00,SSE,156,7.0,10.0,71,0.00,,,-99.99,,2013-03-04 15:52:00,
2013-03-04 11:03:00,27.0,19.0,-100.00,SE,145,7.0,10.0,67,0.00,,,-99.99,,2013-03-04 16:03:00,
2013-03-04 11:11:00,26.0,18.0,-100.00,SSE,148,7.0,10.0,68,0.00,,,-99.99,,2013-03-04 16:11:00,
2013-03-04 11:21:00,28.0,19.0,-100.00,SE,136,6.0,10.0,67,0.00,,,-99.99,,2013-03-04 16:21:00,
2013-03-04 11:32:00,28.0,18.0,-100.00,SSE,152,5.0,10.0,64,0.00,,,-99.99,,2013-03-04 16:32:00,
2013-03-04 11:42:00,29.0,19.0,-100.00,ESE,112,4.0,10.0,63,0.00,,,-99.99,,2013-03-04 16:42:00,
2013-03-04 11:52:00,28.0,19.0,-100.00,SSE,159,6.0,10.0,67,0.00,,,-99.99,,2013-03-04 16:52:00,
2013-03-04 12:02:00,27.0,18.0,-100.00,SSE,156,4.0,10.0,64,0.00,,,-99.99,,2013-03-04 17:02:00,
2013-03-04 12:11:00,29.0,19.0,-100.00,SE,138,4.0,10.0,66,0.00,,,-99.99,,2013-03-04 17:11:00,
2013-03-04 12:22:00,29.0,19.0,-100.00,SE,144,5.0,10.0,64,0.00,,,-99.99,,2013-03-04 17:22:00,
2013-03-04 12:32:00,28.0,19.0,-100.00,SE,146,5.0,10.0,66,0.00,,,-99.99,,2013-03-04 17:32:00,
2013-03-04 12:42:00,29.0,19.0,-100.00,SE,135,5.0,10.0,63,0.00,,,-99.99,,2013-03-04 17:42:00,
2013-03-04 12:52:00,29.0,19.0,-100.00,SE,135,4.0,10.0,63,0.00,,,-99.99,,2013-03-04 17:52:00,
2013-03-04 13:02:00,29.0,19.0,-100.00,SE,144,5.0,10.0,64,0.00,,,-99.99,,2013-03-04 18:02:00,
2013-03-04 13:11:00,28.0,18.0,-100.00,SE,136,4.0,10.0,64,0.00,,,-99.99,,2013-03-04 18:11:00,
2013-03-04 13:22:00,29.0,19.0,-100.00,SE,144,6.0,10.0,62,0.00,,,-99.99,,2013-03-04 18:22:00,
2013-03-04 13:32:00,31.0,19.0,-100.00,SSW,208,5.0,10.0,59,0.00,,,-99.99,,2013-03-04 18:32:00,
2013-03-04 13:42:00,28.0,18.0,-100.00,South,169,6.0,10.0,60,0.00,,,-99.99,,2013-03-04 18:42:00,
2013-03-04 13:52:00,31.0,19.0,-100.00,SE,145,5.0,10.0,60,0.00,,,-99.99,,2013-03-04 18:52:00,
2013-03-04 14:02:00,30.0,19.0,-100.00,SE,131,6.0,10.0,60,0.00,,,-99.99,,2013-03-04 19:02:00,
2013-03-04 14:12:00,30.0,19.0,-100.00,SSE,152,5.0,10.0,63,0.00,,,-99.99,,2013-03-04 19:12:00,
2013-03-04 14:22:00,31.0,19.0,-100.00,SSE,152,6.0,10.0,58,0.00,,,-99.99,,2013-03-04 19:22:00,
2013-03-04 14:32:00,31.0,19.0,-100.00,SE,139,7.0,10.0,60,0.00,,,-99.99,,2013-03-04 19:32:00,
2013-03-04 14:42:00,30.0,21.0,-100.00,SSW,199,7.0,10.0,66,0.00,,,-99.99,,2013-03-04 19:42:00,
2013-03-04 14:52:00,31.0,19.0,-100.00,SE,129,5.0,10.0,58,0.00,,,-99.99,,2013-03-04 19:52:00,
2013-03-04 15:02:00,30.0,19.0,-100.00,SSE,151,5.0,10.0,60,0.00,,,-99.99,,2013-03-04 20:02:00,
2013-03-04 15:12:00,31.0,21.0,-100.00,SE,141,6.0,10.0,63,0.00,,,-99.99,,2013-03-04 20:12:00,
2013-03-04 15:22:00,31.0,21.0,-100.00,SE,124,5.0,10.0,64,0.00,,,-99.99,,2013-03-04 20:22:00,
2013-03-04 15:32:00,30.0,19.0,-100.00,SE,138,6.0,10.0,63,0.00,,,-99.99,,2013-03-04 20:32:00,
2013-03-04 15:42:00,31.0,21.0,-100.00,South,173,4.0,10.0,63,0.00,,,-99.99,,2013-03-04 20:42:00,
2013-03-04 15:52:00,30.0,21.0,-100.00,South,170,5.0,10.0,66,0.00,,,-99.99,,2013-03-04 20:52:00,
2013-03-04 16:02:00,31.0,21.0,-100.00,SE,142,6.0,10.0,64,0.00,,,-99.99,,2013-03-04 21:02:00,
2013-03-04 16:12:00,30.0,19.0,-100.00,SSE,156,4.0,10.0,64,0.00,,,-99.99,,2013-03-04 21:12:00,
2013-03-04 16:22:00,32.0,23.0,-100.00,SE,129,5.0,8.0,68,0.00,,,-99.99,,2013-03-04 21:22:00,
2013-03-04 16:32:00,32.0,23.0,-100.00,South,177,3.0,8.0,67,0.00,,,-99.99,,2013-03-04 21:32:00,
2013-03-04 16:42:00,32.0,23.0,-100.00,SE,146,6.0,8.0,67,0.00,,,-99.99,,2013-03-04 21:42:00,
2013-03-04 16:52:00,33.0,25.0,-100.00,SSE,160,4.0,8.0,68,0.00,,,-99.99,,2013-03-04 21:52:00,
2013-03-04 17:02:00,32.0,23.0,-100.00,SSE,162,4.0,8.0,67,0.00,,,-99.99,,2013-03-04 22:02:00,
2013-03-04 17:12:00,32.0,23.0,-100.00,SE,146,2.0,8.0,67,0.00,,,-99.99,,2013-03-04 22:12:00,
2013-03-04 17:22:00,33.0,23.0,-100.00,ESE,112,5.0,8.0,66,0.00,,,-99.99,,2013-03-04 22:22:00,
2013-03-04 17:32:00,32.0,23.0,-100.00,South,170,3.0,8.0,67,0.00,,,-99.99,,2013-03-04 22:32:00,
2013-03-04 17:42:00,33.0,25.0,-100.00,SE,134,3.0,8.0,67,0.00,,,-99.99,,2013-03-04 22:42:00,
2013-03-04 17:52:00,30.0,21.0,-100.00,SSE,165,3.0,8.0,67,0.00,,,-99.99,,2013-03-04 22:52:00,
2013-03-04 18:02:00,31.0,23.0,-100.00,SE,138,3.0,8.0,67,0.00,,,-99.99,,2013-03-04 23:02:00,
2013-03-04 18:11:00,30.0,21.0,-100.00,SSE,152,2.0,8.0,68,0.00,,,-99.99,,2013-03-04 23:11:00,
2013-03-04 18:22:00,31.0,23.0,-100.00,South,170,4.0,8.0,71,0.00,,,-99.99,,2013-03-04 23:22:00,
2013-03-04 18:32:00,30.0,23.0,-100.00,SSW,193,1.0,8.0,71,0.00,,,-99.99,,2013-03-04 23:32:00,
2013-03-04 18:42:00,28.0,21.0,-100.00,SW,232,1.0,8.0,75,0.00,,,-99.99,,2013-03-04 23:42:00,
2013-03-04 18:52:00,28.0,23.0,-100.00,WSW,240,1.0,8.0,76,0.00,,,-99.99,,2013-03-04 23:52:00,
2013-03-04 19:02:00,28.0,23.0,-100.00,SSE,156,1.0,8.0,76,0.00,,,-99.99,,2013-03-05 00:02:00,
2013-03-04 19:12:00,28.0,21.0,-100.00,South,172,1.0,8.0,76,0.00,,,-99.99,,2013-03-05 00:12:00,
2013-03-04 19:22:00,28.0,23.0,-100.00,SSE,160,1.0,8.0,77,0.00,,,-99.99,,2013-03-05 00:22:00,
2013-03-04 19:32:00,27.0,21.0,-100.00,SE,146,0.0,8.0,77,0.00,,,-99.99,,2013-03-05 00:32:00,
2013-03-04 19:42:00,26.0,21.0,-100.00,SSE,158,0.0,8.0,78,0.00,,,-99.99,,2013-03-05 00:42:00,
2013-03-04 19:52:00,28.0,23.0,-100.00,SE,145,0.0,8.0,78,0.00,,,-99.99,,2013-03-05 00:52:00,
2013-03-04 20:02:00,27.0,21.0,-100.00,SE,138,0.0,8.0,78,0.00,,,-99.99,,2013-03-05 01:02:00,
2013-03-04 20:12:00,26.0,21.0,-100.00,SE,135,0.0,8.0,78,0.00,,,-99.99,,2013-03-05 01:12:00,
2013-03-04 20:22:00,25.0,21.0,-100.00,South,179,0.0,8.0,80,0.00,,,-99.99,,2013-03-05 01:22:00,
2013-03-04 20:32:00,24.0,19.0,-100.00,NNE,28,0.0,8.0,81,0.00,,,-99.99,,2013-03-05 01:32:00,
2013-03-04 20:42:00,22.0,18.0,-100.00,NNE,28,0.0,8.0,81,0.00,,,-99.99,,2013-03-05 01:42:00,
2013-03-04 20:52:00,22.0,18.0,-100.00,NNE,14,0.0,8.0,84,0.00,,,-99.99,,2013-03-05 01:52:00,
2013-03-04 21:01:00,21.0,18.0,-100.00,NNE,12,0.0,8.0,82,0.00,,,-99.99,,2013-03-05 02:01:00,
2013-03-04 21:12:00,17.0,14.0,-100.00,NNE,12,0.0,8.0,84,0.00,,,-99.99,,2013-03-05 02:12:00,
2013-03-04 21:22:00,22.0,19.0,-100.00,NNE,12,0.0,8.0,85,0.00,,,-99.99,,2013-03-05 02:22:00,
2013-03-04 21:32:00,21.0,18.0,-100.00,NNE,12,0.0,8.0,85,0.00,,,-99.99,,2013-03-05 02:32:00,
2013-03-04 21:42:00,18.0,16.0,-100.00,NNE,12,0.0,8.0,86,0.00,,,-99.99,,2013-03-05 02:42:00,
2013-03-04 21:52:00,19.0,18.0,-100.00,West,276,0.0,8.0,86,0.00,,,-99.99,,2013-03-05 02:52:00,
2013-03-04 22:02:00,20.0,18.0,-100.00,NW,314,0.0,8.0,88,0.00,,,-99.99,,2013-03-05 03:02:00,
2013-03-04 22:12:00,18.0,16.0,-100.00,NW,304,0.0,8.0,88,0.00,,,-99.99,,2013-03-05 03:12:00,
2013-03-04 22:22:00,19.0,18.0,-100.00,NW,304,0.0,8.0,89,0.00,,,-99.99,,2013-03-05 03:22:00,
2013-03-04 22:32:00,19.0,18.0,-100.00,NW,304,0.0,8.0,89,0.00,,,-99.99,,2013-03-05 03:32:00,
2013-03-04 22:42:00,16.0,14.0,-100.00,NW,304,0.0,8.0,89,0.00,,,-99.99,,2013-03-05 03:42:00,
2013-03-04 22:52:00,17.0,16.0,-100.00,WNW,299,0.0,8.0,90,0.00,,,-99.99,,2013-03-05 03:52:00,
2013-03-04 23:02:00,18.0,16.0,-100.00,NNW,327,0.0,8.0,90,0.00,,,-99.99,,2013-03-05 04:02:00,
2013-03-04 23:12:00,17.0,16.0,-100.00,NNW,327,0.0,8.0,90,0.00,,,-99.99,,2013-03-05 04:12:00,
2013-03-04 23:22:00,17.0,16.0,-100.00,NNW,327,0.0,8.0,90,0.00,,,-99.99,,2013-03-05 04:22:00,
2013-03-04 23:32:00,17.0,16.0,-100.00,NNW,327,0.0,8.0,90,0.00,,,-99.99,,2013-03-05 04:32:00,
2013-03-04 23:42:00,16.0,14.0,-100.00,NNW,327,0.0,8.0,90,0.00,,,-99.99,,2013-03-05 04:42:00,
2013-03-04 23:52:00,18.0,16.0,-100.00,NNW,327,0.0,8.0,91,0.00,,,-99.99,,2013-03-05 04:52:00,